TimeEST,TemperatureF,Dew PointF,Humidity,Sea Level PressureIn,VisibilityMPH,Wind Direction,Wind SpeedMPH,Gust SpeedMPH,PrecipitationIn,Events,Conditions,WindDirDegrees,DateUTC
12:53 AM,3.9,1.0,88,30.15,8.0,South,4.6,-,N/A,,Overcast,170,2014-02-09 05:53:00
1:53 AM,3.9,1.0,88,30.13,5.0,Calm,Calm,-,N/A,,Overcast,0,2014-02-09 06:53:00
2:53 AM,3.0,-0.0,87,30.12,10.0,ENE,3.5,-,N/A,,Overcast,60,2014-02-09 07:53:00
3:53 AM,5.0,1.9,87,30.10,4.0,Calm,Calm,-,0.00,Snow,Light Snow,0,2014-02-09 08:53:00
4:53 AM,6.1,3.0,87,30.10,2.5,Calm,Calm,-,0.00,Snow,Light Snow,0,2014-02-09 09:53:00
5:07 AM,7.0,3.9,87,30.03,3.0,Calm,Calm,-,0.00,Snow,Light Snow,0,2014-02-09 10:07:00
5:34 AM,8.1,5.0,87,30.02,1.8,East,3.5,-,0.00,Snow,Light Snow,100,2014-02-09 10:34:00
5:37 AM,8.1,5.0,87,30.02,1.2,ESE,3.5,-,0.00,Snow,Light Snow,110,2014-02-09 10:37:00
5:53 AM,8.1,5.0,87,30.09,1.0,Calm,Calm,-,0.01,Snow,Light Snow,0,2014-02-09 10:53:00
6:00 AM,8.1,5.0,87,30.01,1.2,Calm,Calm,-,0.00,Snow,Light Snow,0,2014-02-09 11:00:00
6:16 AM,8.1,3.9,83,30.02,2.0,Calm,Calm,-,0.00,Snow,Light Snow,0,2014-02-09 11:16:00
6:43 AM,8.1,5.0,87,30.01,2.0,Calm,Calm,-,0.00,Snow,Light Snow,0,2014-02-09 11:43:00
6:53 AM,8.1,5.0,87,30.09,2.0,Calm,Calm,-,0.00,Snow,Light Snow,0,2014-02-09 11:53:00
6:58 AM,8.1,5.0,87,30.01,1.5,Calm,Calm,-,0.00,Snow,Light Snow,0,2014-02-09 11:58:00
7:11 AM,8.1,5.0,87,30.01,2.0,Calm,Calm,-,0.01,Snow,Light Snow,0,2014-02-09 12:11:00
7:27 AM,8.1,5.0,87,30.01,3.0,Calm,Calm,-,0.01,Snow,Light Snow,0,2014-02-09 12:27:00
7:43 AM,8.1,5.0,87,30.01,2.5,Calm,Calm,-,0.01,Snow,Light Snow,0,2014-02-09 12:43:00
7:53 AM,8.1,5.0,87,30.09,2.0,Calm,Calm,-,0.01,Snow,Light Snow,0,2014-02-09 12:53:00
7:56 AM,8.1,5.0,87,30.01,1.5,Calm,Calm,-,0.00,Snow,Light Snow,0,2014-02-09 12:56:00
8:04 AM,8.1,5.0,87,30.01,1.2,Calm,Calm,-,0.00,Snow,Light Snow,0,2014-02-09 13:04:00
8:18 AM,9.0,5.0,84,30.01,1.0,Calm,Calm,-,0.00,Snow,Light Snow,0,2014-02-09 13:18:00
8:53 AM,9.0,6.1,88,30.09,1.5,Calm,Calm,-,0.01,Snow,Light Snow,0,2014-02-09 13:53:00
8:57 AM,9.0,6.1,88,30.01,2.0,Calm,Calm,-,0.00,Snow,Light Snow,0,2014-02-09 13:57:00
9:07 AM,10.0,7.0,87,30.01,3.0,Calm,Calm,-,0.00,Snow,Light Snow,0,2014-02-09 14:07:00
9:15 AM,10.0,7.0,87,30.00,2.5,Calm,Calm,-,0.00,Snow,Light Snow,0,2014-02-09 14:15:00
9:23 AM,10.0,6.1,84,30.00,3.0,Calm,Calm,-,0.00,Snow,Light Snow,0,2014-02-09 14:23:00
9:40 AM,12.9,9.0,84,30.00,1.8,Calm,Calm,-,0.00,Snow,Light Snow,0,2014-02-09 14:40:00
9:53 AM,12.0,8.1,84,30.08,2.0,Calm,Calm,-,0.00,Snow,Light Snow,0,2014-02-09 14:53:00
10:03 AM,12.0,8.1,84,30.00,2.5,WSW,3.5,-,0.00,Snow,Light Snow,240,2014-02-09 15:03:00
10:09 AM,12.0,8.1,84,30.00,4.0,WSW,3.5,-,0.00,Snow,Light Snow,240,2014-02-09 15:09:00
10:31 AM,12.9,8.1,81,29.99,7.0,WSW,3.5,-,0.00,,Scattered Clouds,250,2014-02-09 15:31:00
10:53 AM,14.0,8.1,77,30.07,8.0,West,3.5,-,0.00,,Partly Cloudy,280,2014-02-09 15:53:00
11:53 AM,16.0,10.0,77,30.07,10.0,WSW,3.5,-,N/A,,Clear,250,2014-02-09 16:53:00
12:53 PM,18.0,10.0,71,30.04,10.0,WSW,5.8,-,N/A,,Partly Cloudy,240,2014-02-09 17:53:00
1:53 PM,19.0,10.0,68,30.04,8.0,WNW,11.5,-,0.00,,Overcast,290,2014-02-09 18:53:00
2:00 PM,18.0,10.9,74,29.96,2.5,NW,11.5,-,0.00,Snow,Light Snow,310,2014-02-09 19:00:00
2:10 PM,19.0,10.0,68,29.96,1.8,WNW,10.4,-,0.00,Snow,Light Snow,300,2014-02-09 19:10:00
2:15 PM,19.0,9.0,65,29.96,3.0,NW,12.7,-,0.00,Snow,Light Snow,310,2014-02-09 19:15:00
2:53 PM,19.0,9.0,65,30.04,5.0,NW,10.4,-,0.00,Snow,Light Snow,310,2014-02-09 19:53:00
3:10 PM,18.0,10.0,71,29.96,4.0,NNW,9.2,-,0.00,Snow,Light Snow,330,2014-02-09 20:10:00
3:18 PM,18.0,10.0,71,29.96,3.0,NW,8.1,-,0.00,Snow,Light Snow,320,2014-02-09 20:18:00
3:53 PM,19.0,6.1,57,30.04,10.0,NNW,9.2,-,0.00,,Overcast,340,2014-02-09 20:53:00
4:53 PM,18.0,3.9,54,30.06,10.0,NW,11.5,-,N/A,,Overcast,320,2014-02-09 21:53:00
5:53 PM,17.1,1.9,52,30.09,10.0,NNW,9.2,-,N/A,,Overcast,330,2014-02-09 22:53:00
6:53 PM,15.1,3.0,59,30.12,10.0,NW,9.2,-,N/A,,Overcast,320,2014-02-09 23:53:00
7:53 PM,12.9,3.9,67,30.14,10.0,NW,5.8,-,N/A,,Overcast,320,2014-02-10 00:53:00
8:53 PM,12.9,5.0,71,30.16,10.0,NNW,6.9,-,N/A,,Overcast,330,2014-02-10 01:53:00
9:53 PM,10.0,5.0,80,30.17,10.0,West,4.6,-,N/A,,Overcast,270,2014-02-10 02:53:00
10:36 PM,10.0,6.1,84,30.09,6.0,West,3.5,-,0.00,,Overcast,280,2014-02-10 03:36:00
10:53 PM,9.0,5.0,84,30.17,7.0,Calm,Calm,-,0.00,,Overcast,0,2014-02-10 03:53:00
11:53 PM,7.0,3.9,87,30.17,4.0,Calm,Calm,-,0.00,Snow,Light Snow,0,2014-02-10 04:53:00